EW9167 Weather Reports


time (UTC)temp
C
wind
direction
speed
KPH
gust
KPH
rain 1hr
cm
rain 24hr
cm
rain mn
cm
humidity
%
barometer
mb
20260504151135 20 224 6.4 9.7 0.00 0.00 0.00 47 1016.0
20260504150134 20 227 4.8 11.3 0.00 0.00 0.00 47 1016.0
20260504140131 17 276 0.0 12.9 0.00 0.00 0.00 51 1016.3
20260504130133 15 214 4.8 14.5 0.00 0.00 0.00 60 1016.7
20260504120132 12 169 3.2 8.0 0.00 0.00 0.00 74 1016.7
20260504110133 9 138 4.8 4.8 0.00 0.00 0.00 80 1017.3
20260504100134 8 149 3.2 4.8 0.00 0.00 0.00 77 1017.3
20260504090125 8 140 3.2 8.0 0.00 0.00 0.00 74 1017.3
20260504081119 7 125 3.2 4.8 0.00 0.00 0.00 73 1017.3
20260504080117 7 134 3.2 4.8 0.00 0.00 0.00 72 1017.3
20260504070105 7 129 3.2 6.4 0.00 0.00 0.00 70 1017.0
20260504060105 7 122 1.6 4.8 0.00 0.00 0.00 68 1017.0
20260504045103 8 129 3.2 4.8 0.00 0.00 0.00 64 1017.0
20260504044104 8 155 3.2 6.4 0.00 0.00 0.00 63 1016.7
20260504043104 8 195 3.2 6.4 0.00 0.00 0.00 64 1016.7
20260504042104 8 123 3.2 4.8 0.00 0.00 0.00 63 1016.7
20260504041546 8 137 3.2 6.4 0.00 0.00 0.00 64 1017.0
20260504040104 8 137 0.0 3.2 0.00 0.00 0.00 63 1016.7
20260504035107 8 131 3.2 4.8 0.00 0.00 0.00 62 1016.7
20260504034104 8 127 3.2 4.8 0.00 0.00 0.00 61 1016.3
20260504033104 8 127 3.2 3.2 0.00 0.00 0.00 60 1016.3
20260504032103 8 136 3.2 3.2 0.00 0.00 0.00 60 1016.3
20260504031104 9 128 3.2 4.8 0.00 0.00 0.00 57 1016.3
20260504030549 9 126 3.2 3.2 0.00 0.00 0.00 56 1016.3
20260504025555 10 127 3.2 4.8 0.00 0.00 0.00 55 1016.7
20260504024458 10 134 1.6 4.8 0.00 0.00 0.00 53 1016.3
20260504024244 10 124 3.2 4.8 0.00 0.00 0.00 55 1016.3
20260504022106 10 187 1.6 4.8 0.00 0.00 0.00 53 1016.3
20260504021104 10 108 1.6 4.8 0.00 0.00 0.00 53 1016.3
20260504020104 10 157 3.2 4.8 0.00 0.00 0.00 52 1016.3
20260504015103 10 139 3.2 6.4 0.00 0.00 0.00 52 1016.3
20260504014948 10 126 3.2 4.8 0.00 0.00 0.00 50 1016.0
20260504014244 10 128 3.2 4.8 0.00 0.00 0.00 51 1016.0
20260504012104 10 143 3.2 4.8 0.00 0.00 0.00 51 1016.0
20260504011100 10 117 3.2 3.2 0.00 0.00 0.00 51 1015.6
20260504010100 10 122 3.2 3.2 0.00 0.00 0.00 50 1015.6
20260504005100 11 133 3.2 3.2 0.00 0.00 0.00 48 1015.6
20260504004057 11 127 3.2 3.2 0.00 0.00 0.00 46 1015.6
20260504003056 12 128 3.2 3.2 0.00 0.00 0.00 43 1015.3
20260504002056 12 152 1.6 3.2 0.00 0.00 0.00 42 1015.0
20260504001053 13 164 1.6 3.2 0.00 0.00 0.00 41 1015.0
20260504000053 13 180 1.6 4.8 0.00 0.00 0.00 40 1015.0
20260503235053 13 157 1.6 4.8 0.00 0.00 0.00 40 1015.0
20260503234051 14 205 1.6 6.4 0.00 0.00 0.00 39 1015.3
20260503233049 14 189 1.6 6.4 0.00 0.00 0.00 37 1015.0
20260503232052 15 152 3.2 6.4 0.00 0.00 0.00 36 1014.6
20260503231048 15 174 0.0 16.1 0.00 0.00 0.00 36 1015.0
20260503230047 15 240 3.2 8.0 0.00 0.00 0.00 35 1015.0
20260503230016 15 128 3.2 11.3 0.00 0.00 0.00 35 1014.6
20260503224046 16 212 6.4 11.3 0.00 0.00 0.00 33 1014.6
20260503223043 16 64 3.2 8.0 0.00 0.00 0.00 33 1014.6
20260503222042 16 48 3.2 20.9 0.00 0.00 0.00 32 1015.0
20260503221040 17 231 6.4 17.7 0.00 0.00 0.00 30 1014.6
20260503220039 18 343 4.8 11.3 0.00 0.00 0.00 29 1014.6
20260503215039 19 262 0.0 12.9 0.00 0.00 0.00 30 1014.6
20260503214037 19 118 0.0 6.4 0.00 0.00 0.00 32 1015.0
20260503213036 19 123 3.2 16.1 0.00 0.00 0.00 27 1014.6
20260503212043 20 126 3.2 22.5 0.00 0.00 0.00 30 1015.0
20260503211516 20 251 11.3 12.9 0.00 0.00 0.00 30 1014.6
20260503210516 19 227 6.4 17.7 0.00 0.00 0.00 31 1015.0
20260503205039 19 227 6.4 16.1 0.00 0.00 0.00 30 1014.6
20260503204033 18 311 3.2 17.7 0.00 0.00 0.00 31 1015.0
20260503203032 18 210 4.8 20.9 0.00 0.00 0.00 31 1014.6
20260503202030 18 87 3.2 12.9 0.00 0.00 0.00 32 1015.0
20260503201029 18 269 0.0 11.3 0.00 0.00 0.00 32 1015.3
20260503200503 19 163 6.4 16.1 0.00 0.00 0.00 33 1015.0
20260503195029 18 174 3.2 12.9 0.00 0.00 0.00 29 1015.0
20260503194028 19 214 8.0 16.1 0.00 0.00 0.00 28 1015.0
20260503193030 20 267 6.4 8.0 0.00 0.00 0.00 28 1015.0
20260503192027 18 134 1.6 24.1 0.00 0.00 0.00 31 1015.3
20260503191026 18 256 8.0 12.9 0.00 0.00 0.00 31 1015.3
20260503190029 18 56 1.6 11.3 0.00 0.00 0.00 32 1015.3
20260503185022 17 189 4.8 12.9 0.00 0.00 0.00 34 1015.6
20260503184022 17 233 12.9 22.5 0.00 0.00 0.00 29 1015.6
20260503183020 16 303 3.2 20.9 0.00 0.00 0.00 33 1015.6
20260503182019 16 58 3.2 22.5 0.00 0.00 0.00 33 1015.6
20260503181018 16 213 11.3 27.4 0.00 0.00 0.00 32 1015.6
20260503180027 15 23 3.2 12.9 0.00 0.00 0.00 35 1016.0
20260503175018 15 91 3.2 17.7 0.00 0.00 0.00 34 1016.0
20260503174015 15 233 8.0 17.7 0.00 0.00 0.00 36 1016.0
20260503173508 15 117 4.8 14.5 0.00 0.00 0.00 37 1015.6
20260503172014 15 246 17.7 19.3 0.00 0.00 0.00 35 1016.0
20260503171011 15 264 1.6 12.9 0.00 0.00 0.00 41 1016.0